STARLINK-37063, 68079

Orbit data source: Space-Track

STARLINK-37063, 68079 is a payload satellite owned by SpaceX/Seattle (US) in LEO that was launched on Wed, 04 Mar 2026 UTC via an FALCON 9 launch vehicle from the Air Force Eastern Test Range (AFETR). Payload-class satellites include a variety of spacecraft equipped with specific instruments for various scientific and technological missions. These include communications satellites like Starlink; space stations such as the ISS; scientific satellites like the Hubble; Earth observation satellites from companies like Planet Labs, Umbra, and HawkEye 360; GPS; miniature CubeSats for education and research; and military/defense satellites.

Loading next visibility...
Identifier
68079, 2026-042L
Orbit
LEO
Country
Flag of USUS
Related business
Manufacturer
SpaceX/Seattle
Mission
Operational Commercial Communications
Bus & Motor
STARLINK V2MO, Unknown motor
Mass
575 kg wet, ~530 kg dry
Launch date (UTC)
2026-03-04 (4 months ago)
Launch vehicle
FALCON 9
Launch site
Air Force Eastern Test Range (AFETR)
Object type
Payload
Rocket body
Debris
Shape & HBR
Box + 2 Pan, 17.7 m
Radar Cross Section
36.964 m², Large (>1 m²)

Expand to show TLE details & history
Last TLE update: 10 hours ago

TLE from 10 hours ago
0 STARLINK-37063
1 68079U 26042L   26171.42475956  .00019154  00000-0  57652-3 0  9991
2 68079  53.1608  60.1615 0001627  70.3900 289.7278 15.34402961 18051
Epoch: 2026-06-20T10:11Z
TLE epoch observation values (Epoch: 2026-06-20T10:11:39.225Z)
Latitude
-0.00006°
Longitude
-1.39155°
Altitude
463.22 km
Speed
7.636 km/s
True Right ascension
04h 00m 38s
True Declination
0° 00' 00"
Sunlit
Object was in daylight at epoch
Visualization orbit readout
Latitude
Unknown
Longitude
Unknown
Altitude
Unknown
Speed
Unknown
Apparent Right ascension
Unknown
Apparent Declination
Unknown
Sunlit
N/A
Visualization observer readout
Local Sidereal Time
07:19:22
Azimuth
Unknown
Elevation
Unknown
Doppler factor
Unknown
Orbital elements
Apogee altitude
464.064 km
Perigee altitude
461.838 km
Semi-major axis
6,841.088 km
Eccentricity
0.00016
Inclination
53.1608°
RAAN
60.1615°
Arg. of periapsis
70.39°
True anomaly
289.71025°
Mean anomaly
289.7278°
Eccentric anomaly
289.71902°
Mean motion
3.83579 °/min
Orbital period
93.85 mins
BSTAR
0.00057652
Loading maneuver chart data...
Computing Atmospheric mass density...
Loading historical data...
Loading historical data...
Loading historical data...
Loading historical data...
Loading historical data...
Loading historical data...
Loading historical data...

Documentation

Showing up to 5 results
|